Weather History for KIMT - December, 2013

Change the Weather History Date:

Tuesday, December 10, 2013

  Actual Average Record
Temperature  
Mean Temperature 0 °F -  
Max Temperature 10 °F 29 °F 55 °F (1990)
Min Temperature -9 °F 12 °F -13 °F (1958)
Degree Days  
Heating Degree Days 64    
Moisture  
Dew Point -8 °F    
Average Humidity 72    
Maximum Humidity 84    
Minimum Humidity 58    
Precipitation  
Precipitation 0.00 in - - ()
Sea Level Pressure  
Sea Level Pressure 29.91 in    
Wind  
Wind Speed 4 mph (WSW)    
Max Wind Speed 17 mph    
Max Gust Speed 25 mph    
Visibility 7 miles    
Events Snow    
Averages and records for this station are not official NWS values.
T = Trace of Precipitation, MM = Missing Value Source: NWS Daily Summary

Daily Weather History Graph

Daily Weather History Graph

Search for Another Location

Airport or City:

Trip Planner

Search our weather history database for the weather conditions in past years. The results will help you decide how hot, cold, wet, or windy it might be!

Date:

Astronomy

Dec. 10, 2013 Rise Set
Actual Time 7:22 AM CST 4:07 PM CST
Civil Twilight 6:48 AM CST 4:42 PM CST
Nautical Twilight 6:11 AM CST 5:19 PM CST
Astronomical Twilight 5:34 AM CST 5:55 PM CST
Moon 12:25 PM CST (12/10) 12:22 AM CST (12/10)
Length of Visible Light 9h 53m
Length of Day
8h 44m
Waxing Gibbous, 62% of the Moon is Illuminated
Dec 10
Waxing Gibbous
Dec 17
Full
Dec 25
Last Quarter
Jan 1
New
Jan 7
First Quarter

Hourly Weather History & Observations

Time (CST) Temp. Windchill Dew Point Humidity Pressure Visibility Wind Dir Wind Speed Gust Speed Precip Events Conditions
12:54 AM -8.0 °F -16.9 °F -13.0 °F 79% 30.03 in 10.0 mi SW 3.5 mph - N/A   Clear
1:54 AM -9.0 °F - -13.0 °F 83% 30.04 in 10.0 mi Calm Calm - N/A   Partly Cloudy
2:54 AM -8.0 °F - -13.0 °F 79% 30.00 in 10.0 mi Calm Calm - N/A   Mostly Cloudy
3:54 AM -8.0 °F -19.2 °F -13.0 °F 79% 29.96 in 10.0 mi SE 4.6 mph - N/A   Overcast
4:54 AM -7.1 °F -18.1 °F -11.9 °F 79% 29.92 in 10.0 mi SE 4.6 mph - N/A   Overcast
5:51 AM -5.8 °F - -11.2 °F 77% 29.79 in 1.8 mi Calm Calm - 0.00 in Snow Light Snow
5:54 AM -6.0 °F - -11.0 °F 79% 29.90 in 1.5 mi Calm Calm - 0.00 in Snow Light Snow
6:08 AM -5.8 °F -14.5 °F -11.2 °F 77% 29.79 in 1.5 mi SE 3.5 mph - 0.00 in Snow Light Snow
6:26 AM -5.8 °F -14.5 °F -11.2 °F 77% 29.78 in 2.0 mi SE 3.5 mph - 0.00 in Snow Light Snow
6:33 AM -5.8 °F -14.5 °F -11.2 °F 77% 29.78 in 1.5 mi SE 3.5 mph - 0.00 in Snow Light Snow
6:54 AM -6.0 °F -14.7 °F -11.0 °F 79% 29.88 in 1.5 mi SE 3.5 mph - 0.00 in Snow Light Snow
7:24 AM -5.8 °F - -9.4 °F 84% 29.77 in 0.8 mi Calm Calm - 0.00 in Snow Light Snow
7:28 AM -5.8 °F - -9.4 °F 84% 29.77 in 1.0 mi Calm Calm - 0.00 in Snow Light Snow
7:43 AM -5.8 °F - -9.4 °F 84% 29.77 in 0.5 mi Calm Calm - 0.00 in Snow Snow
7:54 AM -5.1 °F -13.6 °F -9.9 °F 80% 29.88 in 0.5 mi ESE 3.5 mph - 0.00 in Snow Snow
8:52 AM -4.0 °F - -9.4 °F 78% 29.76 in 1.0 mi Calm Calm - 0.00 in Snow Light Snow
8:54 AM -4.0 °F - -9.0 °F 79% 29.87 in 1.2 mi Calm Calm - 0.00 in Snow Light Snow
9:04 AM -4.0 °F - -9.4 °F 78% 29.75 in 3.0 mi Calm Calm - 0.00 in   Haze
9:37 AM -2.2 °F -12.5 °F -9.4 °F 71% 29.75 in 9.0 mi WSW 4.6 mph - 0.00 in   Scattered Clouds
9:54 AM -2.0 °F -13.9 °F -9.0 °F 72% 29.87 in 10.0 mi WSW 5.8 mph - 0.00 in   Clear
10:54 AM 3.0 °F -10.5 °F -7.1 °F 63% 29.86 in 10.0 mi WNW 8.1 mph - N/A   Clear
11:54 AM 6.1 °F -8.7 °F -5.1 °F 60% 29.86 in 10.0 mi West 10.4 mph - 0.00 in   Clear
12:54 PM 8.1 °F -5.3 °F -2.9 °F 61% 29.86 in 10.0 mi West 9.2 mph - N/A   Clear
1:54 PM 10.0 °F -2.9 °F -2.0 °F 58% 29.90 in 10.0 mi West 9.2 mph - N/A   Clear
2:54 PM 10.0 °F -0.9 °F -2.0 °F 58% 29.92 in 9.0 mi West 6.9 mph 18.4 mph N/A   Clear
3:54 PM 8.1 °F -7.7 °F -2.9 °F 61% 29.96 in 10.0 mi WNW 12.7 mph 20.7 mph N/A   Clear
4:54 PM 7.0 °F -4.5 °F -2.9 °F 64% 30.01 in 10.0 mi West 6.9 mph - N/A   Scattered Clouds
5:05 PM 6.8 °F -5.9 °F -2.2 °F 67% 29.91 in 10.0 mi West 8.1 mph - N/A   Mostly Cloudy
5:46 PM 6.8 °F -10.0 °F -2.2 °F 67% 29.92 in 10.0 mi West 13.8 mph 18.4 mph N/A   Scattered Clouds
5:54 PM 6.1 °F -7.8 °F -4.0 °F 63% 30.02 in 10.0 mi West 9.2 mph - N/A   Partly Cloudy
6:54 PM 5.0 °F -10.8 °F -4.0 °F 66% 30.04 in 10.0 mi West 11.5 mph - N/A   Clear
7:25 PM 5.0 °F -8.1 °F -4.0 °F 66% 29.94 in 9.0 mi WNW 8.1 mph - N/A   Mostly Cloudy
7:54 PM 5.0 °F -12.3 °F -5.1 °F 63% 30.06 in 9.0 mi WNW 13.8 mph 21.9 mph N/A   Mostly Cloudy
8:20 PM 3.2 °F -16.5 °F -5.8 °F 66% 29.97 in 9.0 mi WNW 17.3 mph 25.3 mph N/A   Scattered Clouds
8:54 PM 3.0 °F -12.5 °F -7.1 °F 63% 30.09 in 10.0 mi West 10.4 mph 24.2 mph N/A   Clear
9:54 PM 1.9 °F -11.8 °F -7.1 °F 66% 30.11 in 10.0 mi West 8.1 mph - N/A   Clear
10:54 PM 1.9 °F -11.8 °F -7.1 °F 66% 30.12 in 10.0 mi West 8.1 mph - N/A   Clear
11:54 PM 1.0 °F -10.3 °F -8.0 °F 66% 30.14 in 10.0 mi West 5.8 mph - N/A   Clear